Snowfall_Accumulation
0.0 0.0 0.0 0.0 0.0 0.0 0.0 0.0 0.0 0.0 0.0 0.0 0.0 0.0 0.0 0.0 0.0 0.0 0.0 0.0 0.0 0.0 0.0 0.0 0.0 0.0 0.0 0.0 0.0 0.0 0.0 0.0 0.0 0.0 0.0 0.0 0.0 0.0 0.0 0.0 0.0 0.0 0.0 0.0 0.0 0.0 0.0
0.0 0.0 0.0 0.0 0.0 0.0 0.0 0.0 0.0 0.0 0.0 0.0 0.0 0.0 0.0 0.0 0.0 0.0 0.0 0.0 0.0 0.0 0.0 0.0 0.0 0.0 0.0 0.0 0.0 0.0 0.0 0.0 0.0 0.0 0.0 0.0 0.0 0.0 0.0 0.0 0.0 0.0 0.0 0.0 0.0 0.0 0.0
0.0 0.0 0.0 0.0 0.0 0.0 0.0 0.0 0.0 0.0 0.0 0.0 0.0 0.0 0.0 0.0 0.0 0.0 0.0 0.0 0.0 0.0 0.0 0.0 0.0 0.0 0.0 0.0 0.0 0.0 0.0 0.0 0.0 0.0 0.0 0.0 0.0 0.0 0.0 0.0 0.0 0.0 0.0 0.0 0.0 0.0 0.0
0.0 0.0 0.0 0.0 0.0 0.0 0.0 0.0 0.0 0.0 0.0 0.0 0.0 0.0 0.0 0.0 0.0 0.0 0.0 0.0 0.0 0.0 0.0 0.0 0.0 0.0 0.0 0.0 0.0 0.0 0.0 0.0 0.0 0.0 0.0 0.0 0.0 0.0 0.0 0.0 0.0 0.0 0.0 4.5 0.0 0.0 0.0
0.0 0.0 0.0 0.0 0.0 0.0 0.0 0.0 0.0 0.0 0.0 0.0 0.0 0.0 0.0 0.0 0.0 0.0 0.0 0.0 0.0 0.0 0.0 0.0 0.0 0.0 0.0 0.0 0.0 0.0 0.0 0.0 0.0 0.0 0.0 0.0 0.0 0.0 0.0 0.0 1.2 0.0 3.5 1.9 0.0 0.0 0.0
0.0 0.0 0.0 0.0 0.0 0.0 0.0 0.0 0.0 0.0 0.0 0.0 0.0 0.0 0.0 0.0 0.0 0.0 0.0 0.0 0.0 0.0 0.0 0.0 0.0 0.0 0.0 0.0 0.0 0.0 0.0 0.0 0.0 0.0 0.0 0.0 0.0 4.8 0.4 1.9 4.2 5.3 0.8 0.8 1.5 0.0 0.0
0.0 0.0 0.0 0.0 0.0 0.0 0.0 0.0 0.0 0.0 0.0 0.0 0.0 0.0 0.0 0.0 0.0 0.0 0.0 0.0 0.0 0.0 0.0 0.0 0.0 0.0 0.0 0.0 0.0 0.0 0.0 0.0 0.0 0.0 0.0 0.0 11.5 7.2 0.0 0.2 0.7 0.6 0.8 0.5 0.0 0.0 0.0
0.0 0.0 0.0 0.0 0.0 0.0 0.0 0.0 0.0 0.0 0.0 0.0 0.0 0.0 0.0 0.0 0.0 0.0 0.0 0.0 0.0 0.0 0.0 0.0 0.0 0.0 0.0 0.0 0.0 0.0 0.0 0.0 0.0 2.9 0.0 0.0 7.2 0.0 0.0 0.0 0.0 0.1 0.8 0.6 0.0 0.0 0.0
0.0 0.0 0.0 0.0 0.0 0.0 0.0 0.0 0.0 0.0 0.0 0.0 0.0 0.0 0.0 0.0 0.0 0.0 0.0 0.0 0.0 0.0 2.4 0.0 0.0 0.0 0.0 0.0 0.0 0.0 0.0 0.0 0.0 0.9 0.0 0.2 0.0 0.0 0.0 0.0 0.6 0.0 0.2 0.8 0.8 0.0 0.0
0.0 0.0 0.0 0.0 0.0 0.0 0.0 0.0 0.0 0.0 0.0 0.0 0.0 0.0 0.0 0.0 0.0 0.0 0.0 0.0 0.0 0.0 15.2 13.4 0.4 0.0 0.0 0.0 0.0 0.0 0.0 0.0 0.0 2.5 0.0 0.4 0.0 0.0 0.0 0.0 0.0 1.1 0.0 0.0 0.8 3.4 4.7
0.0 0.0 0.0 0.0 0.0 0.0 0.0 0.0 0.0 0.0 0.0 0.0 0.0 0.0 0.0 0.0 0.0 0.0 0.0 0.0 0.0 0.0 15.2 1.3 0.0 0.0 0.0 0.0 0.0 0.0 0.0 0.0 0.0 0.0 0.0 4.7 0.0 0.0 0.2 0.6 0.0 0.0 0.0 0.0 0.0 1.4 5.7
0.0 0.0 0.0 0.0 0.0 0.0 0.0 0.0 0.0 0.0 0.0 0.0 0.0 0.0 0.0 0.0 0.0 0.0 0.0 0.0 0.0 14.4 22.3 20.0 0.0 0.0 0.0 0.0 0.0 0.0 0.0 0.0 0.0 0.0 0.0 0.0 0.0 0.0 0.0 0.0 0.0 0.0 0.0 0.0 0.1 2.4 14.5
0.0 0.0 0.0 0.0 0.0 0.0 0.0 0.0 0.0 0.0 0.0 0.0 0.0 0.0 0.0 0.0 0.0 0.0 0.0 0.0 14.9 12.5 5.6 12.8 5.6 0.0 0.0 0.0 0.0 0.0 0.0 0.0 4.0 13.1 13.6 5.7 0.0 0.0 0.0 0.0 0.0 0.0 2.9 16.0 15.0 18.0 8.0
0.0 0.0 0.0 0.0 0.0 0.0 0.0 0.0 0.0 0.0 0.0 0.0 0.0 0.0 0.0 0.0 0.0 0.0 0.0 4.8 9.6 7.9 6.7 0.0 0.0 0.0 2.8 0.0 0.0 0.0 1.7 2.1 0.0 1.8 5.7 7.1 11.4 2.3 0.0 0.0 0.0 0.0 0.4 12.7 12.0 7.8 6.4
0.0 0.0 0.0 0.0 0.0 0.0 0.0 0.0 0.0 0.0 0.0 0.0 0.0 0.0 0.0 0.0 0.0 0.0 0.0 10.4 8.3 7.8 7.7 0.0 0.0 2.9 2.9 0.0 0.0 0.1 2.3 0.8 0.0 0.0 5.8 2.8 4.2 0.0 0.0 0.0 0.0 1.6 4.3 0.2 11.2 4.6 6.3
0.0 0.0 0.0 0.0 0.0 0.0 0.0 0.0 0.0 0.0 0.0 0.0 0.0 0.0 0.0 0.0 0.0 0.0 4.7 10.2 5.3 1.0 0.0 0.0 1.5 0.1 0.8 0.3 0.2 0.3 0.2 0.0 0.0 0.0 0.0 1.4 6.8 0.0 0.0 0.0 0.0 0.3 0.0 5.6 12.8 10.2 5.3
0.0 0.0 0.0 0.0 0.0 0.0 0.0 0.0 0.0 0.0 0.0 0.0 0.0 0.0 0.0 0.0 0.0 0.0 15.5 10.8 1.5 0.0 0.0 0.0 0.0 0.0 0.0 0.0 0.0 0.6 0.7 0.0 0.0 0.0 0.0 0.0 9.2 2.2 1.2 0.9 0.2 3.6 4.7 1.9 1.3 5.1 6.5
0.0 0.0 0.0 0.0 0.0 0.0 0.0 0.0 0.0 0.0 0.0 0.0 0.0 13.0 0.0 0.0 1.7 11.1 8.3 3.1 0.0 0.0 0.0 0.0 0.0 0.0 0.0 0.0 0.2 0.6 0.2 0.0 0.0 0.0 0.8 0.0 4.3 6.8 0.6 0.0 0.0 0.7 0.4 0.1 7.3 5.2 2.4
0.0 0.0 0.0 0.0 0.0 0.0 0.0 0.0 0.0 0.0 0.0 0.0 0.0 0.0 0.0 0.0 9.8 6.2 0.4 1.4 0.0 0.0 0.0 0.0 0.0 0.0 0.0 0.0 0.1 0.0 0.0 0.0 0.0 0.0 0.3 1.0 10.1 8.1 5.7 0.7 0.7 4.1 0.9 1.0 3.0 5.4 5.4
0.0 0.0 0.0 0.0 0.0 0.0 0.0 0.0 0.0 0.0 0.0 0.0 0.0 11.5 0.0 0.0 0.0 0.0 1.3 1.2 0.2 0.0 0.0 0.0 0.0 0.0 0.0 0.0 0.0 0.1 0.0 0.0 0.0 0.1 0.2 0.1 3.1 8.8 7.2 5.4 5.9 5.4 1.1 1.9 6.0 11.4 2.2
0.0 0.0 0.0 0.0 0.0 0.0 0.0 0.0 0.0 0.0 0.0 0.0 0.0 1.5 0.0 7.2 3.4 0.0 0.2 0.9 0.2 0.0 0.0 0.1 0.2 0.0 0.4 1.3 0.5 0.0 0.0 0.1 0.3 0.1 0.1 0.2 10.6 12.3 3.9 3.1 4.5 5.1 2.3 1.3 6.6 2.2 5.9
0.0 0.0 0.0 0.0 0.0 0.0 0.0 0.0 0.0 0.0 0.0 0.0 0.5 0.0 0.0 0.0 0.0 1.0 0.4 0.3 0.3 0.0 0.6 0.7 0.4 0.4 1.0 0.9 0.4 1.7 1.0 0.8 0.4 0.0 0.0 0.0 9.3 6.5 2.9 1.7 3.5 5.3 1.1 1.2 0.6 0.2 0.4
0.0 0.0 0.0 0.0 0.0 0.0 0.0 0.0 0.0 0.0 0.0 0.0 0.0 0.0 0.0 0.0 0.7 0.2 0.3 0.2 0.2 0.1 0.6 0.4 0.4 1.4 1.1 0.0 1.5 1.3 0.8 0.4 0.2 0.5 0.1 1.4 6.2 8.7 7.0 2.2 3.6 4.3 2.2 0.7 0.6 0.0 0.0
0.0 0.0 0.0 0.0 0.0 0.0 0.0 0.0 0.0 0.0 0.0 0.0 0.0 0.0 0.7 0.5 0.2 0.0 0.0 0.0 0.4 0.3 1.1 1.0 0.6 0.9 0.6 0.5 0.0 0.0 0.0 0.0 0.2 0.1 0.1 0.4 3.3 6.4 8.3 5.3 7.0 0.6 0.0 0.0 0.0 0.1 0.0
0.0 0.0 0.0 0.0 0.0 0.0 0.0 0.0 0.0 0.0 0.0 0.0 0.0 0.0 0.5 1.4 0.1 0.0 0.0 0.6 0.5 1.2 1.7 1.2 0.9 0.8 0.3 0.2 1.3 1.4 0.7 0.0 0.0 0.1 0.2 0.0 1.4 4.7 4.1 3.0 0.2 0.6 0.0 0.0 0.0 0.1 0.2
0.0 0.0 0.0 0.0 0.0 0.0 0.0 0.0 0.0 0.0 0.0 0.0 0.0 0.0 0.4 4.0 0.4 0.0 0.5 1.0 1.2 1.4 1.3 0.7 0.1 0.7 1.0 1.8 2.1 3.6 1.1 0.1 0.2 0.0 0.0 0.1 0.3 3.0 2.6 4.2 1.6 0.3 0.0 0.0 0.0 0.3 0.0
0.0 0.0 0.0 0.0 0.0 0.0 0.0 0.0 0.0 0.0 0.0 0.0 0.0 0.0 0.4 7.4 0.3 0.0 0.6 1.3 0.8 2.4 4.1 1.8 1.7 2.3 1.8 1.9 4.0 2.0 0.6 0.0 0.2 0.1 0.4 0.3 0.9 3.0 2.8 4.5 0.6 0.0 0.0 0.0 0.3 0.6 0.0
0.0 0.0 0.0 0.0 0.0 0.0 0.0 0.0 0.0 0.0 0.0 0.0 0.0 0.0 0.0 6.3 0.6 0.3 0.6 1.2 1.6 2.0 5.2 3.7 5.0 2.7 1.5 3.9 4.2 1.2 1.0 1.0 0.6 0.4 0.5 1.1 2.2 1.3 2.0 3.4 1.3 0.0 0.0 0.7 1.2 0.2 0.1
0.0 0.0 0.0 0.0 0.0 0.0 0.0 0.0 0.0 0.0 0.0 0.0 0.0 0.0 0.0 4.3 4.8 1.4 0.8 0.6 0.1 0.6 3.0 3.9 4.2 2.7 4.2 5.2 3.6 4.2 3.7 1.8 0.8 1.8 0.0 2.1 2.1 3.1 2.4 1.2 0.1 0.1 0.9 0.3 0.4 1.5 0.6